Location: Bottom School (historical)
(37.9078°N, 89.3593°W)
Time: 19:01:02
(UTC+00:00)

SL-4 R/B - Pass Details

Date: 01 July 2022
Orbit: 425 x 653 km, 51.6° (Epoch: 16 August)

Event Time Altitude Azimuth Distance (km) Brightness Sun altitude
Exits shadow 08:39:28 - 296° (WNW) 1,936 4.7 -18.6°
Reaches altitude 10° 08:40:36 10° 309° (NW) 1,652 4.5 -18.4°
Maximum altitude 08:42:45 15° 345° (NNW) 1,421 4.6 -18.2°
Drops below altitude 10° 08:45:00 10° 20° (NNE) 1,729 5.7 -17.9°
Sets 08:48:08 0° 45° (NE) 2,678 7.3 -17.5°
